CAPE
7 12 6 1 1 4 2 2 2 1 0 0 0 0 0 0 0 0 9 125 205 234
10 10 10 5 6 2 4 3 3 2 1 1 1 0 0 1 0 0 0 0 0 1
8 10 10 5 5 3 5 3 3 3 3 4 3 1 1 1 1 0 3 0 0 0
3 14 10 8 6 4 4 5 5 5 4 3 4 4 1 3 5 3 2 0 0 0
4 8 11 10 7 7 8 8 5 5 6 6 5 5 4 5 3 1 3 1 0 0
3 3 4 5 10 9 9 12 12 11 8 9 8 9 13 10 9 3 1 1 1 1
8 3 3 6 2 6 8 9 15 14 6 8 9 13 15 8 2 1 1 0 0 2
20 9 5 2 8 3 6 9 8 6 6 3 0 5 8 11 10 12 7 11 31 37
0 7 18 25 13 11 2 18 25 16 17 24 13 7 7 16 25 28 32 39 46 61
0 0 0 2 23 22 37 55 65 43 26 39 31 0 2 31 62 32 84 97 108 92
3 0 2 2 0 6 45 127 104 78 71 92 36 0 0 13 61 83 61 61 87 47
11 1 18 6 1 0 17 33 62 63 64 89 40 0 0 3 76 79 47 29 102 82
22 2 38 10 18 6 8 2 6 14 49 44 79 0 0 0 75 80 64 59 44 26
59 23 53 9 12 13 33 46 52 41 54 37 39 43 0 0 1 19 15 8 10 24
CIN
-0 -0 -0 -0 -0 -0 -0 -0 -0 -0 -0 -0 -0 -0 -0 -0 -0 -0 -102 -31 -28 -56
-0 -0 -0 -0 -0 -0 -0 -0 -0 -0 -0 -0 -0 -0 -0 -0 -0 -0 -0 -0 -2 -106
-0 -0 -0 -0 -0 -0 -0 -0 -0 -0 -0 -0 -0 -0 -0 -0 -0 -0 -0 -0 -0 -0
-0 -0 -0 -0 -0 -0 -0 -0 -0 -0 -0 -0 -0 -0 -0 -0 -0 -0 -0 -0 -0 -0
-0 -0 -0 -0 -0 -0 -0 -0 -0 -0 -0 -0 -0 -0 -0 -0 -0 -0 -0 -0 -0 -0
-0 -0 -0 -0 -0 -0 -0 -0 -0 -0 -0 -0 -0 -0 -0 -0 -0 -0 -0 -0 -0 -0
-0 -0 -0 -0 -0 -0 -0 -0 -0 -0 -0 -0 -0 -0 -0 -0 -0 -0 -0 -0 -0 -4
-0 -0 -0 -0 -0 -0 -0 -0 -0 -0 -0 -0 -2 -0 -0 -0 -0 -0 -0 -0 -0 -0
-0 -1 -0 -0 -0 -0 -2 -0 -0 -0 -0 -0 -0 -3 -3 -1 -0 -0 -0 -0 -0 -0
-0 -0 -0 -0 -0 -0 -0 -0 -0 -0 -0 -0 -0 -26 -0 -1 -0 -0 -0 -0 -0 -0
-0 -0 -0 -0 -0 -9 -4 -0 -0 -0 -0 -1 -0 -0 -4 -12 -1 -1 -0 -0 -0 -1
-0 -0 -0 -0 -2 -2 -0 -2 -0 -0 -0 -0 -0 -0 -0 -18 -0 -2 -1 -2 -0 -0
-2 -6 -0 -0 -0 -10 -4 -9 -15 -9 -3 -7 -0 -0 -0 -0 -1 -0 -1 -0 -9 -39
-1 -8 -0 -5 -1 -0 -0 -0 -0 -0 -0 -0 -0 -5 -0 -0 -3 -14 -37 -56 -33 -20
Wind_Speed
7 4 4 4 4 1 3 3 6 7 8 8 8 6 4 3 4 5 5 7 7 8
7 7 5 5 4 4 5 4 5 5 6 9 8 8 7 5 5 4 4 4 4 5
6 5 5 3 2 3 4 6 5 5 5 4 9 7 8 6 7 8 7 6 4 5
6 6 6 4 3 5 6 4 6 5 7 7 8 8 8 8 8 13 7 8 8 9
8 8 6 7 7 6 5 6 7 6 7 7 7 7 8 10 9 11 11 8 9 8
6 6 7 6 6 6 7 6 7 7 8 7 7 7 7 8 9 11 10 9 9 11
6 6 5 5 5 5 5 6 7 7 7 7 8 7 7 7 9 9 9 8 8 8
6 7 6 5 5 6 6 6 6 7 6 6 6 5 7 7 7 7 8 8 9 7
7 5 2 6 5 6 8 10 10 10 9 9 7 12 12 9 6 8 7 8 9 7
1 2 1 2 5 7 8 9 11 11 11 10 9 14 11 11 8 9 8 9 9 9
5 5 5 3 1 3 4 5 8 8 9 9 10 12 11 12 8 7 6 6 5 7
7 7 9 7 4 2 3 4 3 5 4 9 12 8 6 5 7 5 7 9 7 6
10 8 6 7 6 3 3 1 2 1 2 1 7 9 7 5 4 6 4 2 3 6
3 2 9 9 6 8 8 9 9 10 9 9 8 11 11 9 7 5 5 7 9 9
Wind_Direction
2 333 322 348 8 29 74 108 144 129 130 128 127 109 84 35 348 332 286 271 268 295
7 3 353 28 29 49 56 83 74 77 98 116 114 100 90 82 51 16 339 324 281 293
15 19 37 29 49 102 106 106 110 101 101 135 97 104 92 75 75 74 43 8 20 306
29 36 50 58 89 84 89 97 101 121 129 116 120 102 94 93 82 82 57 77 45 17
41 41 60 58 70 79 85 93 96 92 83 82 84 100 110 116 107 94 74 58 73 59
82 75 65 74 68 85 83 90 109 117 91 92 83 83 88 96 100 85 81 70 49 53
113 106 96 88 94 90 99 103 88 89 97 83 90 94 99 91 83 85 82 78 77 66
141 143 137 132 131 135 131 128 122 119 115 115 108 101 99 98 103 115 135 152 143 167
43 25 169 161 170 164 177 171 163 154 152 158 157 150 149 140 152 154 169 165 167 166
131 112 92 192 217 226 212 186 176 171 168 168 152 167 187 189 169 169 188 169 174 164
189 173 174 175 110 33 300 206 173 177 173 158 153 171 179 185 179 178 166 148 161 199
188 194 182 183 191 92 8 8 100 104 144 161 141 156 158 175 156 166 186 202 205 209
168 195 166 182 183 138 243 154 57 42 200 182 158 140 143 196 233 195 213 203 251 250
118 243 159 174 181 191 207 192 190 189 204 189 190 164 177 196 245 243 207 230 212 214